| time (UTC) | temp C | wind direction | speed KPH | gust KPH | rain 1hr cm | rain 24hr cm | rain mn cm | humidity % | barometer mb |
| 20260504202703 | 27 | 168 | 12.9 | 30.6 | 0.00 | 0.00 | 0.00 | 60 | 1006.2 |
| 20260504201803 | 27 | 167 | 14.5 | 30.6 | 0.00 | 0.00 | 0.00 | 61 | 1006.6 |
| 20260504200903 | 27 | 168 | 14.5 | 32.2 | 0.00 | 0.00 | 0.00 | 59 | 1006.6 |
| 20260504200003 | 27 | 169 | 14.5 | 32.2 | 0.00 | 0.00 | 0.00 | 61 | 1006.9 |
| 20260504195403 | 27 | 168 | 12.9 | 32.2 | 0.00 | 0.00 | 0.00 | 60 | 1007.0 |
| 20260504194503 | 27 | 171 | 12.9 | 27.4 | 0.00 | 0.00 | 0.00 | 62 | 1007.3 |
| 20260504193603 | 26 | 164 | 16.1 | 33.8 | 0.00 | 0.00 | 0.00 | 61 | 1007.5 |
| 20260504192725 | 26 | 169 | 12.9 | 35.4 | 0.00 | 0.00 | 0.00 | 61 | 1007.6 |
| 20260504191803 | 26 | 164 | 14.5 | 32.2 | 0.00 | 0.00 | 0.00 | 63 | 1007.5 |
| 20260504190903 | 26 | 166 | 12.9 | 32.2 | 0.00 | 0.00 | 0.00 | 62 | 1007.7 |
| 20260504190003 | 26 | 163 | 14.5 | 30.6 | 0.00 | 0.00 | 0.00 | 62 | 1007.9 |
| 20260504185403 | 26 | 167 | 11.3 | 30.6 | 0.00 | 0.00 | 0.00 | 61 | 1008.0 |
| 20260504184524 | 26 | 167 | 12.9 | 29.0 | 0.00 | 0.00 | 0.00 | 63 | 1008.0 |
| 20260504183624 | 26 | 164 | 14.5 | 37.0 | 0.00 | 0.00 | 0.00 | 62 | 1008.2 |
| 20260504182703 | 25 | 166 | 14.5 | 37.0 | 0.00 | 0.00 | 0.00 | 63 | 1008.3 |
| 20260504181803 | 25 | 170 | 14.5 | 33.8 | 0.00 | 0.00 | 0.00 | 62 | 1008.7 |
| 20260504180903 | 25 | 169 | 12.9 | 32.2 | 0.00 | 0.00 | 0.00 | 63 | 1008.8 |
| 20260504180003 | 25 | 175 | 14.5 | 35.4 | 0.00 | 0.00 | 0.00 | 64 | 1008.8 |
| 20260504175403 | 25 | 171 | 14.5 | 37.0 | 0.00 | 0.00 | 0.00 | 64 | 1008.9 |
| 20260504174503 | 25 | 170 | 14.5 | 37.0 | 0.00 | 0.00 | 0.00 | 64 | 1009.0 |
| 20260504173603 | 24 | 172 | 16.1 | 38.6 | 0.00 | 0.00 | 0.00 | 63 | 1009.0 |
| 20260504172704 | 24 | 183 | 14.5 | 33.8 | 0.00 | 0.00 | 0.00 | 65 | 1009.2 |
| 20260504171803 | 24 | 178 | 12.9 | 25.7 | 0.00 | 0.00 | 0.00 | 65 | 1009.4 |
| 20260504170903 | 23 | 181 | 14.5 | 33.8 | 0.00 | 0.00 | 0.00 | 65 | 1009.7 |
| 20260504150924 | 21 | 178 | 14.5 | 32.2 | 0.00 | 0.00 | 0.00 | 73 | 1010.7 |
| 20260504140903 | 18 | 172 | 14.5 | 32.2 | 0.00 | 0.00 | 0.00 | 77 | 1010.9 |
| 20260504081803 | 15 | 171 | 6.4 | 14.5 | 0.00 | 0.00 | 0.00 | 78 | 1011.8 |
| 20260504080903 | 16 | 168 | 8.0 | 17.7 | 0.00 | 0.00 | 0.00 | 78 | 1011.8 |
| 20260504050003 | 16 | 164 | 6.4 | 17.7 | 0.00 | 0.00 | 0.00 | 71 | 1013.6 |
| 20260504045403 | 16 | 164 | 4.8 | 14.5 | 0.00 | 0.00 | 0.00 | 71 | 1013.7 |
| 20260504044503 | 17 | 165 | 4.8 | 11.3 | 0.00 | 0.00 | 0.00 | 71 | 1013.7 |
| 20260504043603 | 17 | 165 | 4.8 | 9.7 | 0.00 | 0.00 | 0.00 | 70 | 1013.8 |
| 20260504042703 | 17 | 166 | 3.2 | 11.3 | 0.00 | 0.00 | 0.00 | 69 | 1013.9 |
| 20260504041803 | 17 | 166 | 4.8 | 11.3 | 0.00 | 0.00 | 0.00 | 69 | 1013.8 |
| 20260504040903 | 17 | 163 | 4.8 | 12.9 | 0.00 | 0.00 | 0.00 | 69 | 1014.0 |
| 20260504040003 | 17 | 164 | 4.8 | 11.3 | 0.00 | 0.00 | 0.00 | 68 | 1014.1 |
| 20260504035424 | 17 | 167 | 3.2 | 9.7 | 0.00 | 0.00 | 0.00 | 67 | 1014.1 |
| 20260504034503 | 17 | 166 | 4.8 | 9.7 | 0.00 | 0.00 | 0.00 | 66 | 1014.0 |
| 20260504033603 | 18 | 167 | 4.8 | 9.7 | 0.00 | 0.00 | 0.00 | 66 | 1014.0 |
| 20260504032703 | 18 | 166 | 3.2 | 9.7 | 0.00 | 0.00 | 0.00 | 65 | 1013.9 |
| 20260504031803 | 18 | 166 | 4.8 | 11.3 | 0.00 | 0.00 | 0.00 | 65 | 1013.8 |
| 20260504030903 | 18 | 169 | 4.8 | 11.3 | 0.00 | 0.00 | 0.00 | 64 | 1013.7 |
| 20260504030002 | 18 | 165 | 4.8 | 9.7 | 0.00 | 0.00 | 0.00 | 64 | 1013.6 |
| 20260504025403 | 18 | 162 | 3.2 | 9.7 | 0.00 | 0.00 | 0.00 | 64 | 1013.5 |
| 20260504024503 | 18 | 167 | 4.8 | 11.3 | 0.00 | 0.00 | 0.00 | 63 | 1013.7 |
| 20260504023603 | 19 | 163 | 4.8 | 9.7 | 0.00 | 0.00 | 0.00 | 62 | 1013.7 |
| 20260504022703 | 19 | 162 | 4.8 | 8.0 | 0.00 | 0.00 | 0.00 | 61 | 1013.7 |
| 20260504021803 | 20 | 162 | 4.8 | 12.9 | 0.00 | 0.00 | 0.00 | 59 | 1013.6 |
| 20260504020903 | 20 | 159 | 4.8 | 11.3 | 0.00 | 0.00 | 0.00 | 58 | 1013.6 |
| 20260504020003 | 20 | 164 | 4.8 | 14.5 | 0.00 | 0.00 | 0.00 | 57 | 1013.5 |
| 20260504015403 | 20 | 164 | 6.4 | 14.5 | 0.00 | 0.00 | 0.00 | 55 | 1013.6 |
| 20260504014503 | 21 | 163 | 4.8 | 12.9 | 0.00 | 0.00 | 0.00 | 54 | 1013.5 |
| 20260504013603 | 21 | 166 | 6.4 | 16.1 | 0.00 | 0.00 | 0.00 | 53 | 1013.3 |
| 20260504012724 | 21 | 164 | 6.4 | 16.1 | 0.00 | 0.00 | 0.00 | 52 | 1013.1 |
| 20260504011803 | 21 | 164 | 6.4 | 16.1 | 0.00 | 0.00 | 0.00 | 50 | 1013.2 |
| 20260504010903 | 22 | 166 | 8.0 | 14.5 | 0.00 | 0.00 | 0.00 | 49 | 1013.3 |
| 20260504010024 | 22 | 166 | 8.0 | 19.3 | 0.00 | 0.00 | 0.00 | 47 | 1013.2 |
| 20260504005403 | 22 | 167 | 8.0 | 19.3 | 0.00 | 0.00 | 0.00 | 47 | 1013.3 |
| 20260504004503 | 23 | 164 | 9.7 | 20.9 | 0.00 | 0.00 | 0.00 | 45 | 1013.2 |
| 20260504003603 | 23 | 165 | 9.7 | 24.1 | 0.00 | 0.00 | 0.00 | 44 | 1013.3 |
| 20260504002703 | 23 | 163 | 9.7 | 24.1 | 0.00 | 0.00 | 0.00 | 43 | 1013.2 |
| 20260504001824 | 24 | 166 | 9.7 | 22.5 | 0.00 | 0.00 | 0.00 | 42 | 1013.4 |
| 20260504000904 | 24 | 164 | 11.3 | 25.7 | 0.00 | 0.00 | 0.00 | 41 | 1013.5 |
| 20260504000003 | 25 | 165 | 9.7 | 20.9 | 0.00 | 0.00 | 0.00 | 40 | 1013.5 |
| 20260503235403 | 25 | 159 | 12.9 | 25.7 | 0.00 | 0.00 | 0.00 | 39 | 1013.5 |
| 20260503234503 | 25 | 165 | 9.7 | 25.7 | 0.00 | 0.00 | 0.00 | 40 | 1013.5 |
| 20260503233602 | 26 | 168 | 9.7 | 24.1 | 0.00 | 0.00 | 0.00 | 38 | 1013.5 |
| 20260503232703 | 26 | 171 | 8.0 | 20.9 | 0.00 | 0.00 | 0.00 | 38 | 1013.6 |
| 20260503231803 | 26 | 169 | 9.7 | 22.5 | 0.00 | 0.00 | 0.00 | 38 | 1013.7 |
| 20260503230903 | 26 | 165 | 9.7 | 24.1 | 0.00 | 0.00 | 0.00 | 37 | 1013.8 |
| 20260503230024 | 26 | 165 | 11.3 | 27.4 | 0.00 | 0.00 | 0.00 | 36 | 1013.8 |
| 20260503225403 | 26 | 167 | 9.7 | 24.1 | 0.00 | 0.00 | 0.00 | 36 | 1014.0 |
| 20260503224503 | 26 | 164 | 12.9 | 27.4 | 0.00 | 0.00 | 0.00 | 37 | 1014.0 |
| 20260503223624 | 26 | 164 | 11.3 | 24.1 | 0.00 | 0.00 | 0.00 | 37 | 1013.9 |
| 20260503222703 | 27 | 170 | 11.3 | 22.5 | 0.00 | 0.00 | 0.00 | 36 | 1014.0 |
| 20260503221803 | 27 | 168 | 11.3 | 20.9 | 0.00 | 0.00 | 0.00 | 35 | 1014.0 |
| 20260503220903 | 27 | 167 | 11.3 | 22.5 | 0.00 | 0.00 | 0.00 | 35 | 1014.2 |
| 20260503220024 | 27 | 170 | 9.7 | 19.3 | 0.00 | 0.00 | 0.00 | 37 | 1014.2 |
| 20260503215403 | 27 | 173 | 9.7 | 20.9 | 0.00 | 0.00 | 0.00 | 35 | 1014.3 |
| 20260503214503 | 27 | 181 | 11.3 | 29.0 | 0.00 | 0.00 | 0.00 | 35 | 1014.4 |
| 20260503213603 | 27 | 171 | 9.7 | 27.4 | 0.00 | 0.00 | 0.00 | 36 | 1014.6 |
| 20260503212703 | 27 | 189 | 9.7 | 22.5 | 0.00 | 0.00 | 0.00 | 37 | 1014.8 |
| 20260503211803 | 27 | 176 | 11.3 | 22.5 | 0.00 | 0.00 | 0.00 | 34 | 1014.9 |
| 20260503210902 | 27 | 207 | 8.0 | 17.7 | 0.00 | 0.00 | 0.00 | 35 | 1014.9 |
| 20260503210003 | 27 | 188 | 9.7 | 25.7 | 0.00 | 0.00 | 0.00 | 35 | 1015.2 |
| 20260503205403 | 27 | 183 | 9.7 | 22.5 | 0.00 | 0.00 | 0.00 | 36 | 1015.3 |
| 20260503204524 | 27 | 173 | 11.3 | 22.5 | 0.00 | 0.00 | 0.00 | 35 | 1015.5 |
| 20260503203602 | 27 | 185 | 6.4 | 17.7 | 0.00 | 0.00 | 0.00 | 38 | 1015.6 |